Location: Drocourt
(49.0571°N, 1.7669°E)
Time: 15:54:59
(UTC+00:00)

Vanguard 1 Rocket - Pass Details

Date: 18 April 2024
Orbit: 651 x 4220 km, 34.3° (Epoch: 19 May)

Event Time Altitude Azimuth Distance (km) Brightness Sun altitude
Rises 21:15:39 0° 249° (WSW) 3,684 10.8 -20.6°
Reaches altitude 10° 21:18:05 10° 238° (WSW) 3,015 10.2 -20.8°
Maximum altitude 21:24:36 32° 177° (S) 2,509 9.2 -21.5°
Enters shadow 21:26:44 30° 157° (SSE) 2,840 9.3 -21.7°
